{"data":{"norad_id":47997,"epoch":"2026-05-25T04:34:55.100064Z","epoch_age_seconds":48650,"freshness":"FRESH","line1":"1 47997U 21024W   26145.19091551 -.00000115  00000+0  80792-5 0  9992","line2":"2 47997  53.1595 310.9576 0001749  72.7991 287.3201 15.31703204286705","mean_motion":15.31703204,"eccentricity":0.0001749,"inclination_deg":53.1595,"raan_deg":310.9576,"arg_perigee_deg":72.7991,"mean_anomaly_deg":287.3201,"bstar":8.0792e-6,"rev_number":28670,"period_min":94.012991305331,"perigee_km":469.53257736901,"apogee_km":471.92831120102,"semimajor_km":6848.867444285,"source":"CELESTRAK","updated_at":"2026-05-25T13:38:16.638972Z"}}